STARLINK-36667, 68975

Orbit data source: Space-Track

STARLINK-36667, 68975 is a payload satellite owned by SpaceX/Seattle (US) in LEO that was launched on Fri, 01 May 2026 UTC via an FALCON 9 launch vehicle from the Air Force Eastern Test Range (AFETR). Payload-class satellites include a variety of spacecraft equipped with specific instruments for various scientific and technological missions. These include communications satellites like Starlink; space stations such as the ISS; scientific satellites like the Hubble; Earth observation satellites from companies like Planet Labs, Umbra, and HawkEye 360; GPS; miniature CubeSats for education and research; and military/defense satellites.

Loading next visibility...
Identifier
68975, 2026-099AA
Orbit
LEO
Country
Flag of USUS
Related business
Manufacturer
SpaceX/Seattle
Mission
Operational spacecraft
Bus & Motor
STARLINK V2MO, Unknown motor
Mass
575 kg wet, ~530 kg dry
Launch date (UTC)
2026-05-01 (2 months ago)
Launch vehicle
FALCON 9
Launch site
Air Force Eastern Test Range (AFETR)
Object type
Payload
Rocket body
Debris
Shape & HBR
Unknown shape, 14.5 m
Radar Cross Section
Large (>1 m²)

Expand to show TLE details & history
Last TLE update: 2 days ago

TLE from 2 days ago
0 STARLINK-36667
1 68975U 26099AA  26170.32645607  .00013774  00000-0  41814-3 0  9993
2 68975  53.1595 151.0835 0001391  94.0006 266.1156 15.34393083  7600
Epoch: 2026-06-19T07:50Z
TLE epoch observation values (Epoch: 2026-06-19T07:50:05.804Z)
Latitude
0.00001°
Longitude
126.00229°
Altitude
463.69 km
Speed
7.636 km/s
True Right ascension
10h 04m 20s
True Declination
0° 00' 00"
Sunlit
Object was in daylight at epoch
Visualization orbit readout
Latitude
Unknown
Longitude
Unknown
Altitude
Unknown
Speed
Unknown
Apparent Right ascension
Unknown
Apparent Declination
Unknown
Sunlit
N/A
Visualization observer readout
Local Sidereal Time
07:15:43
Azimuth
Unknown
Elevation
Unknown
Doppler factor
Unknown
Orbital elements
Apogee altitude
463.932 km
Perigee altitude
462.029 km
Semi-major axis
6,841.118 km
Eccentricity
0.00014
Inclination
53.1595°
RAAN
151.0835°
Arg. of periapsis
94.0006°
True anomaly
266.0997°
Mean anomaly
266.1156°
Eccentric anomaly
266.10765°
Mean motion
3.83577 °/min
Orbital period
93.85 mins
BSTAR
0.00041814
Loading maneuver chart data...
Computing Atmospheric mass density...
Loading historical data...
Loading historical data...
Loading historical data...
Loading historical data...
Loading historical data...
Loading historical data...
Loading historical data...

Documentation

Showing up to 5 results
|